This is the latest recevied weather packets stored in our database for station/object KE2LU. If no packets are shown the sender has not sent any weather packets the latest 10 day(s).
| Time | Temp. | Humidity | Pressure | Rain* | Wind** | Luminosity | Snow |
|---|---|---|---|---|---|---|---|
| 1777704602 | 4.44° C | 97% | 1013.6 hPa | 0 mm | - | - | - |
| 1777701902 | 4.44° C | 97% | 1013.8 hPa | 0 mm | - | - | - |
| 1777701602 | 4.44° C | 97% | 1013.8 hPa | 0 mm | - | - | - |
| 1777700403 | 4.44° C | 97% | 1013.7 hPa | 0 mm | - | - | - |
| 1777698603 | 3.89° C | 98% | 1014 hPa | 0 mm | - | - | - |
| 1777698302 | 3.89° C | 98% | 1014 hPa | 0 mm | - | - | - |
| 1777693203 | 3.33° C | 96% | 1013.8 hPa | 0 mm | - | - | - |
| 1777691403 | 3.89° C | 96% | 1013.8 hPa | 0 mm | - | - | - |
| 1777690502 | 3.89° C | 96% | 1013.8 hPa | 0 mm | - | - | - |
| 1777688702 | 3.89° C | 95% | 1013.8 hPa | 0 mm | - | - | - |
| 1777686603 | 3.89° C | 95% | 1013.8 hPa | 0 mm | - | - | - |
| 1777686002 | 4.44° C | 95% | 1013.8 hPa | 0 mm | - | - | - |
| 1777685403 | 4.44° C | 95% | 1013.7 hPa | 0 mm | - | - | - |
| 1777684803 | 5° C | 95% | 1013.6 hPa | 0 mm | - | - | - |
| 1777683603 | 5° C | 95% | 1013.3 hPa | 0 mm | - | - | - |
| 1777682103 | 5° C | 94% | 1013.1 hPa | 0 mm | - | - | - |
| 1777681203 | 5° C | 94% | 1012.9 hPa | 0 mm | - | - | - |
| 1777679703 | 5° C | 93% | 1012.7 hPa | 0.25 mm | - | - | - |
| 1777677302 | 5° C | 92% | 1012.8 hPa | 0.76 mm | - | - | - |
| 1777675803 | 5° C | 90% | 1013 hPa | 0.76 mm | - | - | - |
| 1777674003 | 5° C | 88% | 1012.9 hPa | 0.25 mm | - | - | - |
| 1777673703 | 5° C | 88% | 1013 hPa | 0.25 mm | - | - | - |
| 1777672803 | 5° C | 86% | 1013 hPa | 0.25 mm | - | - | - |
| 1777672203 | 5.56° C | 86% | 1012.9 hPa | 0 mm | - | - | - |
| 1777671603 | 5.56° C | 84% | 1012.9 hPa | 0 mm | - | - | - |
* Rain latest hour (hover to see other rain measurements)
** Current wind speed in m/s (hover to see current wind gust speed)